Wind_Speed
19 18 16 13 10 6 2 1 8 14 17 15 13 15 17 15 15 15 15 13 10 10 9 9 10 10 11 11 11 11 11 12 13 14 15 16 16 16 16 15 15 14 14 14 15 15 15 16 16
21 19 17 14 12 6 2 4 14 22 19 10 11 15 16 13 13 13 12 10 8 8 7 8 8 8 7 8 8 8 8 9 10 11 12 13 14 14 14 14 14 14 14 15 15 15 16 16 17
19 17 15 14 12 5 3 7 19 22 15 12 15 13 12 10 10 10 9 7 6 6 7 7 7 7 7 7 8 8 8 8 8 9 10 11 11 12 12 12 12 12 13 13 14 14 15 16 16
14 14 13 12 9 3 4 11 19 18 12 12 14 12 9 9 9 8 7 6 6 6 7 7 7 7 7 7 7 7 7 8 8 8 9 9 9 9 9 10 10 11 11 12 13 13 14 15 16
11 11 12 12 8 6 9 12 15 14 10 9 12 11 10 10 9 8 7 6 6 6 7 7 7 7 6 6 6 6 7 8 8 9 9 9 9 9 10 10 10 11 12 12 13 14 15 15 16
11 12 14 10 4 6 12 15 14 12 8 6 9 11 10 10 10 8 7 7 6 6 7 7 7 7 6 6 6 7 7 8 9 10 10 11 11 11 11 12 12 13 13 14 14 15 16 17 17
12 16 15 8 5 9 13 13 11 8 7 4 7 12 11 12 10 9 8 7 6 6 7 7 7 7 7 8 8 8 9 10 10 11 12 12 13 13 13 14 14 14 14 15 15 16 17 17 18
12 14 15 11 8 10 12 11 10 8 7 5 8 14 12 13 12 11 10 8 7 7 7 7 7 8 8 9 9 10 10 11 12 12 13 13 14 14 14 14 14 14 14 15 15 16 17 18 18
12 13 13 10 5 10 12 10 10 8 9 6 10 13 12 12 12 12 11 11 9 8 7 7 8 8 9 10 10 10 11 11 12 12 13 13 13 13 13 13 13 13 14 15 15 16 16 16 17
12 15 12 6 9 13 12 11 10 10 10 9 12 12 8 11 12 12 12 12 11 11 9 8 9 10 10 11 12 12 12 12 13 13 13 13 13 13 13 13 14 14 14 14 14 14 14 14 15
13 16 14 11 16 17 14 13 14 12 11 13 16 13 9 10 12 13 13 13 13 13 12 12 12 12 12 13 14 14 14 14 13 13 13 13 13 12 12 13 13 13 13 14 14 14 14 15 15
15 19 16 14 19 23 19 15 15 14 16 18 22 20 10 12 13 14 14 14 14 14 15 15 15 16 16 16 16 16 16 15 14 14 14 14 14 13 13 13 14 14 14 15 15 16 16 17 19
17 19 19 17 19 20 21 19 17 16 17 21 24 22 14 14 15 15 16 16 16 16 17 18 18 18 19 19 18 18 18 17 16 16 15 15 14 14 15 15 16 16 16 17 18 19 19 20 21
20 21 22 21 20 20 21 20 20 17 17 22 24 24 19 19 19 19 18 17 18 18 19 20 20 21 21 21 21 21 20 20 19 18 18 18 16 17 17 17 18 19 20 21 22 22 23 24 25
24 24 24 22 21 21 21 22 20 16 18 23 25 22 21 23 24 23 21 19 20 20 21 23 22 23 23 24 24 24 24 24 23 22 21 21 20 20 21 21 21 22 23 24 26 28 28 30 31
27 27 26 23 23 22 22 23 17 16 20 25 26 22 26 26 27 28 26 23 23 22 22 25 25 25 26 27 28 28 28 28 28 27 26 26 25 24 24 24 25 27 27 28 30 32 33 36 37
28 28 27 25 24 22 23 24 16 18 25 29 28 26 27 28 29 31 31 27 26 25 25 27 29 28 30 30 31 32 33 33 33 32 31 30 29 29 28 27 28 30 31 32 34 36 38 40 42
25 25 24 23 20 22 25 26 20 22 29 30 30 29 29 29 30 34 35 34 30 29 28 29 32 31 32 34 35 36 37 38 38 37 38 35 33 32 31 30 31 33 34 36 37 39 42 44 46
25 24 21 19 18 22 29 32 29 26 29 32 33 31 31 31 32 35 39 39 34 32 30 31 34 34 35 36 38 40 41 42 42 40 40 38 35 34 34 33 34 36 39 40 41 43 45 48 50
26 29 28 26 24 25 29 34 36 33 31 32 35 35 33 33 36 38 42 43 39 34 34 34 36 37 38 39 41 43 44 45 44 43 42 40 36 35 35 37 38 39 41 43 44 46 48 50 53
28 29 29 29 29 31 33 36 39 40 36 36 38 40 38 36 38 41 44 45 43 41 39 38 38 39 40 41 43 45 47 47 46 45 43 41 40 38 38 39 41 42 44 45 47 48 50 52 54
27 27 28 30 32 33 34 37 37 38 35 34 35 38 39 37 38 42 45 46 44 43 41 41 40 39 40 42 45 46 47 48 48 47 45 43 42 41 40 41 42 45 46 46 47 48 51 52 54
23 23 25 26 29 33 35 38 37 33 31 31 31 33 37 39 39 41 43 44 43 42 42 41 40 40 42 44 45 46 47 48 47 47 46 45 44 43 42 42 44 45 46 47 49 51 53 55 56
19 21 23 24 26 30 28 30 33 29 29 28 27 28 34 38 39 41 40 38 38 40 40 40 40 41 43 44 46 46 47 48 47 47 47 46 46 45 44 45 46 48 49 50 51 53 55 57 59
18 18 19 20 21 22 17 21 23 19 20 24 26 29 34 38 39 40 37 36 37 38 38 39 40 42 43 44 46 47 47 48 48 48 48 47 48 46 46 46 49 51 53 53 54 56 58 60 60
19 19 19 18 17 16 15 16 15 16 20 25 28 32 35 38 38 38 37 36 36 36 37 38 39 41 42 44 45 46 47 47 48 48 48 48 48 48 48 50 52 54 56 56 57 58 59 60 60
21 22 19 20 21 23 23 22 19 19 23 28 30 30 30 31 32 33 33 33 34 35 36 38 39 40 41 42 43 45 46 46 46 48 48 47 48 50 51 53 56 57 58 58 58 59 60 61 60
23 21 22 24 24 25 24 21 20 22 23 23 25 26 27 26 27 28 28 30 32 34 35 36 38 39 40 42 43 45 46 46 46 46 46 48 50 52 55 57 58 58 58 58 59 60 61 61 61
24 23 24 25 25 24 24 20 17 23 24 25 26 26 28 29 33 32 30 30 32 34 36 37 38 39 41 42 44 45 46 46 47 48 49 51 53 55 57 58 59 59 58 59 60 61 62 62 62
25 24 23 26 27 27 28 26 23 28 30 30 31 34 36 38 37 35 31 30 32 34 36 37 39 40 42 43 45 46 47 48 50 52 53 54 55 57 58 60 60 60 61 62 61 61 62 62 63
Wind_Direction
220 222 223 221 214 205 110 39 258 253 255 258 272 283 281 282 288 290 291 294 295 285 286 282 277 271 268 268 266 261 252 246 243 244 246 247 249 251 252 253 253 255 255 256 256 258 259 261 264
218 223 225 222 212 188 348 264 247 254 264 277 289 284 282 287 291 293 292 293 294 293 295 294 290 284 281 281 279 274 266 257 250 247 246 245 247 250 252 254 255 256 257 258 260 262 263 263 264
217 221 220 213 199 172 162 216 246 260 276 290 292 291 297 300 300 299 299 299 303 301 300 302 302 298 293 289 285 279 274 267 259 253 251 252 253 254 255 255 255 256 258 259 261 262 263 265 266
212 212 206 196 174 154 216 217 241 259 271 282 296 305 319 322 320 318 321 325 325 318 312 309 308 303 296 292 286 279 276 272 267 262 259 258 257 256 255 254 256 258 259 260 262 264 266 268 270
200 194 184 166 146 178 230 225 240 254 267 291 300 315 327 330 332 333 338 344 343 336 329 326 319 310 298 290 284 278 275 272 270 267 264 263 263 263 263 263 263 265 266 267 267 269 271 273 275
183 172 159 130 128 212 231 233 239 248 260 283 297 315 327 329 332 337 342 349 353 350 348 345 339 326 314 301 290 282 274 269 268 268 268 269 271 271 271 271 272 272 271 270 270 271 273 275 277
181 171 149 140 187 219 233 233 236 252 262 263 297 308 320 321 328 332 341 347 354 356 355 354 348 336 322 312 302 291 284 279 277 276 275 276 276 276 275 275 275 274 273 272 271 272 274 276 278
182 179 154 151 184 209 240 238 232 241 245 261 284 295 306 314 323 330 336 342 350 354 351 348 342 336 327 317 309 303 296 292 287 283 280 279 278 278 277 276 275 275 274 274 273 274 276 277 278
178 179 145 126 205 217 229 238 238 232 248 252 275 281 297 308 319 329 337 342 345 346 344 338 334 333 329 323 317 312 305 299 295 291 288 285 284 283 281 279 276 276 277 277 276 277 278 278 278
179 171 143 136 202 226 217 229 238 237 250 254 266 274 287 307 319 328 336 342 343 342 338 335 332 332 330 325 321 316 311 305 302 298 295 293 291 288 285 282 279 281 282 281 280 280 279 280 281
186 181 169 193 200 211 204 221 234 240 258 268 263 259 287 312 320 327 334 338 341 340 337 335 333 329 327 324 321 318 315 310 308 305 303 301 300 299 297 293 289 287 286 285 285 285 286 286 283
202 199 197 206 213 216 210 213 234 244 254 259 263 257 267 310 318 322 327 330 334 336 337 336 335 330 326 323 320 318 314 311 310 308 307 307 307 307 307 305 301 297 293 290 289 288 288 287 286
219 217 221 220 218 219 219 219 224 235 255 264 271 273 277 302 310 314 317 322 326 329 329 330 332 329 326 322 319 317 314 310 308 306 305 305 305 305 305 305 302 300 297 294 291 290 288 286 286
230 229 230 230 228 226 229 230 226 225 240 258 268 274 277 288 304 306 307 312 318 320 320 321 324 323 322 319 316 314 311 308 305 302 300 299 299 298 297 298 297 296 294 292 290 288 287 286 286
235 237 239 238 237 233 235 238 236 234 236 250 260 271 281 286 296 303 300 299 308 313 313 312 314 315 314 313 312 310 309 306 303 300 296 293 292 291 291 291 291 290 288 288 288 287 288 287 286
240 243 246 246 245 240 241 244 242 249 244 247 254 262 271 279 289 295 296 294 302 306 307 306 306 309 307 306 305 305 305 303 300 297 294 290 288 287 287 289 289 288 288 288 287 287 288 288 288
242 247 251 250 251 252 250 251 233 241 245 245 251 259 267 275 283 285 288 293 296 300 303 301 300 301 300 300 300 300 301 301 299 296 293 287 285 285 286 288 290 290 291 291 290 290 290 289 289
245 250 254 256 252 254 254 256 244 239 243 246 254 261 267 272 278 283 286 290 290 294 297 296 295 296 295 295 295 296 297 298 299 295 296 289 283 283 285 286 289 291 293 293 293 292 291 291 291
235 233 237 251 254 244 251 257 255 245 254 258 258 259 264 270 274 278 282 284 287 292 293 292 291 291 290 291 291 292 293 294 296 296 294 296 289 284 284 285 288 291 292 292 293 292 291 290 289
236 235 230 228 227 230 239 249 254 247 245 258 264 263 261 263 268 272 277 281 285 290 292 290 288 287 287 287 288 288 289 290 292 295 296 297 291 290 289 288 288 290 291 291 292 292 292 291 290
240 241 238 236 232 229 232 242 251 257 253 253 261 267 267 264 266 269 272 277 283 287 289 287 284 283 283 284 284 285 286 288 291 295 297 298 294 293 291 290 291 291 292 293 293 293 292 291 290
246 247 246 243 241 239 240 251 256 265 269 266 264 267 271 269 269 271 272 275 280 284 284 283 281 281 281 282 283 283 285 287 290 292 294 295 295 293 292 292 292 292 294 296 295 296 295 294 293
247 247 248 250 251 251 248 252 258 262 264 266 270 270 268 269 272 274 273 273 277 279 279 279 278 279 280 281 282 283 285 286 289 292 293 293 294 295 294 294 294 295 296 296 296 297 296 296 295
247 248 250 251 254 259 265 268 271 269 266 266 270 266 263 267 272 273 276 274 273 272 273 275 277 278 279 281 283 284 286 288 290 291 293 293 293 293 293 295 294 295 297 297 297 297 296 296 295
248 250 254 260 264 274 288 287 293 291 271 257 253 252 256 261 267 272 274 272 268 267 269 271 274 277 279 281 283 285 286 287 289 291 291 291 291 291 293 294 295 297 298 297 297 297 297 297 296
250 254 254 253 256 266 267 273 281 269 259 253 253 257 260 266 269 269 268 267 266 266 267 270 273 276 279 281 282 284 284 286 288 289 289 289 290 292 295 297 298 298 298 297 297 298 297 297 298
244 249 258 261 258 254 250 244 244 262 273 278 279 275 270 268 267 265 263 263 264 266 268 270 272 275 277 279 281 282 284 286 287 288 288 290 292 294 297 297 298 298 297 297 298 299 299 300 299
253 245 244 251 258 263 266 267 271 265 262 263 264 266 265 264 270 270 264 263 265 266 268 270 273 275 277 279 280 282 284 286 288 289 291 294 295 296 297 298 298 297 297 298 299 300 301 300 300
255 258 251 250 251 258 266 266 266 271 265 257 257 262 262 269 276 276 271 270 268 269 270 272 274 276 278 280 282 283 285 287 289 290 293 295 295 296 297 297 297 297 298 299 299 300 300 300 300
251 249 254 259 259 256 258 261 260 267 265 263 262 262 265 271 274 275 273 273 273 273 274 275 277 278 280 282 284 286 288 290 292 292 294 295 296 296 295 296 297 297 298 299 300 300 300 300 300
Height
5887 5889 5891 5894 5898 5900 5901 5905 5907 5902 5899 5897 5897 5897 5895 5895 5894 5895 5891 5889 5890 5888 5888 5887 5887 5886 5886 5886 5886 5886 5886 5887 5888 5889 5889 5890 5891 5891 5892 5892 5892 5892 5892 5893 5893 5893 5893 5893 5894
5885 5887 5890 5893 5896 5897 5902 5905 5904 5899 5897 5896 5896 5895 5893 5893 5892 5891 5889 5888 5888 5887 5887 5886 5886 5885 5885 5885 5884 5884 5884 5885 5886 5886 5887 5888 5888 5889 5889 5889 5890 5890 5890 5890 5890 5890 5890 5891 5891
5883 5885 5888 5892 5894 5896 5900 5903 5900 5897 5896 5896 5895 5893 5892 5892 5891 5889 5888 5887 5887 5886 5886 5885 5885 5884 5884 5884 5883 5883 5883 5883 5884 5884 5885 5886 5886 5887 5887 5887 5887 5887 5887 5888 5887 5887 5887 5887 5887
5881 5884 5887 5891 5893 5896 5899 5900 5897 5896 5896 5896 5893 5891 5891 5890 5890 5888 5887 5886 5886 5885 5885 5884 5884 5883 5883 5883 5883 5882 5882 5882 5882 5883 5883 5883 5884 5884 5884 5884 5884 5885 5885 5885 5885 5884 5884 5884 5884
5881 5883 5887 5889 5892 5897 5898 5897 5896 5896 5895 5894 5892 5890 5890 5890 5889 5888 5886 5886 5885 5884 5884 5883 5883 5882 5882 5882 5882 5882 5882 5882 5881 5881 5881 5881 5882 5882 5882 5882 5882 5882 5882 5882 5882 5881 5881 5881 5880
5880 5883 5886 5888 5893 5898 5898 5896 5895 5894 5892 5892 5890 5889 5889 5889 5888 5887 5886 5885 5884 5884 5883 5882 5882 5882 5882 5881 5881 5881 5881 5880 5880 5880 5880 5879 5879 5880 5880 5879 5879 5879 5879 5879 5879 5878 5878 5878 5877
5880 5881 5883 5888 5893 5898 5897 5895 5894 5894 5891 5891 5890 5888 5889 5888 5888 5887 5886 5885 5884 5884 5883 5882 5882 5881 5881 5881 5880 5880 5879 5879 5878 5878 5878 5877 5877 5877 5877 5877 5876 5876 5876 5876 5875 5875 5875 5875 5874
5878 5881 5881 5886 5891 5896 5896 5894 5893 5892 5891 5892 5891 5889 5888 5888 5887 5886 5885 5884 5884 5883 5883 5882 5881 5881 5880 5880 5879 5879 5878 5877 5876 5876 5875 5875 5874 5874 5874 5873 5873 5873 5873 5873 5872 5872 5872 5871 5871
5878 5883 5883 5887 5893 5894 5895 5894 5892 5892 5892 5891 5891 5888 5888 5887 5886 5885 5884 5883 5883 5882 5882 5882 5881 5880 5879 5879 5878 5877 5876 5875 5874 5873 5873 5872 5872 5871 5871 5870 5870 5870 5870 5869 5869 5869 5868 5868 5867
5877 5881 5882 5887 5892 5892 5892 5894 5892 5891 5891 5890 5889 5886 5886 5886 5885 5884 5883 5882 5881 5881 5881 5880 5880 5879 5878 5877 5876 5875 5874 5873 5872 5871 5870 5869 5869 5868 5868 5867 5867 5866 5866 5865 5865 5864 5864 5863 5863
5876 5879 5878 5884 5888 5888 5889 5892 5891 5890 5890 5889 5887 5884 5885 5884 5884 5883 5882 5881 5880 5879 5879 5878 5878 5877 5877 5876 5874 5873 5872 5871 5870 5869 5867 5866 5866 5865 5864 5864 5863 5862 5862 5861 5861 5860 5860 5859 5859
5874 5876 5876 5880 5883 5884 5886 5889 5889 5889 5889 5887 5884 5879 5879 5882 5881 5881 5880 5879 5879 5878 5877 5876 5876 5875 5874 5873 5872 5871 5870 5869 5868 5866 5865 5864 5863 5862 5861 5860 5859 5859 5858 5858 5857 5856 5856 5855 5853
5871 5873 5875 5876 5879 5881 5883 5884 5886 5888 5887 5885 5881 5876 5876 5879 5879 5879 5878 5877 5877 5876 5876 5875 5874 5873 5872 5871 5870 5869 5868 5867 5866 5864 5863 5861 5860 5859 5858 5857 5855 5855 5854 5854 5853 5852 5851 5850 5848
5868 5870 5871 5873 5875 5877 5879 5881 5882 5884 5885 5882 5879 5876 5871 5876 5878 5877 5875 5875 5874 5874 5874 5873 5873 5872 5870 5869 5868 5867 5866 5864 5864 5862 5860 5859 5857 5856 5855 5854 5852 5851 5850 5849 5848 5847 5846 5845 5843
5863 5865 5867 5869 5872 5874 5876 5877 5879 5882 5883 5881 5878 5875 5873 5873 5875 5874 5873 5871 5871 5871 5871 5870 5870 5870 5868 5867 5865 5864 5863 5862 5861 5860 5858 5856 5854 5852 5851 5850 5848 5846 5845 5844 5842 5841 5840 5838 5837
5858 5860 5862 5866 5867 5869 5872 5873 5876 5878 5880 5879 5877 5876 5875 5872 5872 5871 5869 5868 5868 5868 5868 5867 5867 5867 5865 5864 5862 5861 5860 5859 5857 5856 5855 5852 5851 5849 5846 5845 5843 5841 5839 5838 5836 5835 5833 5830 5828
5852 5855 5858 5861 5862 5864 5867 5868 5872 5874 5874 5874 5874 5874 5873 5872 5870 5866 5863 5864 5864 5863 5864 5863 5862 5863 5861 5860 5858 5857 5855 5854 5853 5851 5850 5848 5846 5844 5842 5840 5837 5834 5833 5831 5829 5827 5825 5822 5819
5848 5850 5852 5855 5859 5861 5862 5863 5867 5867 5867 5868 5869 5869 5869 5869 5867 5863 5858 5858 5859 5859 5860 5859 5857 5858 5857 5855 5853 5852 5850 5848 5847 5845 5843 5841 5839 5837 5835 5834 5831 5827 5825 5823 5821 5818 5815 5812 5808
5841 5844 5849 5853 5856 5858 5858 5858 5860 5862 5861 5862 5863 5864 5864 5864 5863 5860 5855 5852 5853 5853 5854 5854 5852 5851 5851 5849 5848 5846 5844 5841 5840 5838 5835 5833 5831 5830 5827 5826 5824 5821 5817 5814 5812 5809 5805 5802 5797
5835 5838 5841 5846 5850 5853 5853 5852 5852 5855 5856 5855 5855 5857 5858 5858 5857 5855 5850 5847 5845 5846 5848 5848 5846 5845 5844 5842 5841 5839 5836 5834 5833 5831 5828 5826 5824 5822 5820 5818 5815 5812 5808 5805 5802 5798 5794 5790 5785
5830 5833 5836 5839 5842 5843 5844 5844 5845 5846 5849 5849 5848 5848 5850 5852 5850 5848 5844 5841 5840 5841 5841 5840 5839 5837 5836 5834 5833 5830 5828 5825 5824 5822 5820 5818 5815 5813 5811 5809 5805 5802 5798 5795 5791 5787 5783 5778 5773
5824 5827 5829 5831 5833 5835 5838 5837 5839 5839 5840 5841 5841 5841 5841 5843 5841 5839 5837 5835 5835 5834 5833 5832 5831 5829 5828 5826 5824 5822 5820 5818 5815 5814 5812 5809 5806 5804 5802 5799 5795 5791 5787 5783 5778 5774 5769 5765 5760
5819 5821 5823 5825 5826 5827 5829 5829 5831 5833 5834 5835 5835 5834 5834 5833 5833 5830 5829 5828 5827 5826 5824 5823 5822 5821 5819 5818 5816 5813 5811 5809 5806 5804 5802 5799 5796 5794 5791 5788 5784 5779 5775 5771 5766 5761 5756 5751 5746
5813 5815 5817 5818 5820 5820 5823 5823 5823 5826 5827 5829 5830 5829 5826 5824 5823 5820 5820 5820 5819 5817 5816 5814 5813 5812 5810 5809 5807 5805 5802 5800 5797 5794 5792 5788 5786 5783 5781 5777 5773 5768 5763 5759 5754 5749 5743 5737 5731
5809 5811 5812 5813 5814 5815 5818 5817 5818 5819 5820 5822 5822 5821 5818 5815 5814 5812 5813 5812 5811 5809 5807 5806 5804 5803 5802 5800 5798 5796 5793 5790 5787 5784 5781 5778 5774 5772 5770 5765 5761 5756 5751 5746 5740 5735 5729 5723 5717
5804 5806 5808 5810 5812 5814 5816 5816 5817 5814 5813 5812 5813 5812 5810 5808 5806 5805 5804 5803 5801 5800 5799 5798 5796 5795 5793 5791 5789 5787 5784 5781 5778 5774 5771 5768 5763 5760 5757 5753 5748 5743 5737 5732 5726 5720 5714 5708 5702
5799 5800 5803 5804 5805 5806 5807 5809 5810 5808 5807 5805 5804 5803 5801 5798 5797 5795 5795 5794 5793 5791 5791 5789 5788 5786 5784 5782 5780 5777 5774 5772 5769 5764 5761 5758 5753 5749 5745 5740 5735 5730 5724 5718 5712 5706 5700 5693 5687
5793 5796 5798 5798 5799 5799 5801 5803 5805 5803 5800 5798 5795 5793 5791 5788 5787 5786 5786 5785 5784 5784 5782 5781 5779 5778 5776 5773 5771 5768 5765 5762 5758 5754 5750 5746 5742 5737 5732 5727 5721 5716 5710 5704 5698 5692 5685 5679 5672
5789 5789 5790 5792 5794 5795 5796 5800 5799 5793 5791 5790 5789 5787 5783 5780 5779 5779 5778 5778 5777 5776 5774 5772 5771 5769 5766 5764 5761 5758 5755 5751 5747 5743 5739 5735 5730 5724 5719 5713 5708 5702 5696 5690 5684 5678 5671 5664 5657
5783 5785 5786 5786 5786 5787 5787 5792 5790 5786 5783 5782 5781 5778 5775 5772 5771 5770 5770 5770 5769 5768 5766 5764 5762 5759 5757 5754 5751 5748 5744 5740 5736 5732 5727 5722 5717 5711 5705 5700 5694 5688 5682 5676 5670 5663 5656 5649 5642